TimeEST,TemperatureF,Dew PointF,Humidity,Sea Level PressureIn,VisibilityMPH,Wind Direction,Wind SpeedMPH,Gust SpeedMPH,PrecipitationIn,Events,Conditions,WindDirDegrees,DateUTC
12:51 AM,30.9,28.9,92,29.92,7.0,West,3.5,-,N/A,,Overcast,270,2012-12-29 05:51:00
1:24 AM,32.0,28.4,87,29.84,1.8,SE,5.8,-,0.00,Snow,Light Snow,140,2012-12-29 06:24:00
1:34 AM,32.0,28.4,87,29.83,1.2,SE,4.6,-,0.00,Snow,Light Snow,140,2012-12-29 06:34:00
1:51 AM,32.0,28.9,88,29.86,1.2,Calm,Calm,-,0.01,Snow,Light Snow,0,2012-12-29 06:51:00
2:10 AM,32.0,30.2,93,29.77,2.5,Calm,Calm,-,0.01,Snow,Light Snow,0,2012-12-29 07:10:00
2:18 AM,32.0,30.2,93,29.76,3.0,Calm,Calm,-,0.02,Snow,Light Snow,0,2012-12-29 07:18:00
2:35 AM,33.8,28.4,81,29.75,8.0,SE,4.6,-,0.02,Rain,Light Freezing Rain,140,2012-12-29 07:35:00
2:51 AM,33.8,28.4,81,29.73,9.0,SE,6.9,-,N/A,Rain,Light Rain,140,2012-12-29 07:51:00
3:51 AM,37.0,28.0,70,29.73,10.0,SE,6.9,-,0.01,Rain,Light Rain,140,2012-12-29 08:51:00
4:51 AM,37.4,28.4,70,29.63,10.0,SE,5.8,16.1,N/A,,Overcast,140,2012-12-29 09:51:00
5:31 AM,35.6,30.2,81,29.65,10.0,SE,3.5,-,0.00,Rain,Light Rain,140,2012-12-29 10:31:00
5:51 AM,35.1,30.0,82,29.72,4.0,SSE,5.8,-,0.01,Snow,Light Snow,150,2012-12-29 10:51:00
6:02 AM,33.8,30.2,87,29.67,1.8,SSE,6.9,-,0.01,Snow,Light Snow,160,2012-12-29 11:02:00
6:25 AM,33.8,30.2,87,29.66,3.0,SE,8.1,-,0.04,Snow,Light Snow,140,2012-12-29 11:25:00
6:48 AM,33.8,30.2,87,29.66,1.8,South,9.2,-,0.05,Snow,Light Snow,170,2012-12-29 11:48:00
6:51 AM,34.0,30.9,89,29.72,1.5,South,10.4,-,0.05,Snow,Light Snow,170,2012-12-29 11:51:00
7:02 AM,33.8,30.2,87,29.65,1.8,SSE,5.8,-,0.01,Snow,Light Snow,150,2012-12-29 12:02:00
7:24 AM,33.8,30.2,87,29.65,3.0,Variable,5.8,-,0.03,Snow,Light Snow,0,2012-12-29 12:24:00
7:38 AM,33.8,30.2,87,29.65,9.0,SSE,9.2,-,0.04,,Overcast,160,2012-12-29 12:38:00
7:51 AM,34.0,30.0,85,29.71,10.0,SSE,8.1,-,0.04,,Overcast,150,2012-12-29 12:51:00
7:58 AM,33.8,30.2,87,29.64,9.0,SSE,8.1,-,0.00,Snow,Light Snow,160,2012-12-29 12:58:00
8:33 AM,33.8,30.2,87,29.64,8.0,SE,5.8,-,0.00,Snow,Light Snow,130,2012-12-29 13:33:00
8:51 AM,33.1,30.9,92,29.70,4.0,SE,6.9,-,0.00,Snow,Light Snow,130,2012-12-29 13:51:00
9:35 AM,33.8,30.2,87,29.63,2.0,SE,6.9,-,0.00,Snow,Light Snow,140,2012-12-29 14:35:00
9:51 AM,34.0,30.9,89,29.70,2.5,SE,6.9,-,0.00,Snow,Light Snow,130,2012-12-29 14:51:00
10:07 AM,33.8,30.2,87,29.64,5.0,SSE,5.8,-,0.00,Snow,Light Snow,150,2012-12-29 15:07:00
10:51 AM,36.0,30.9,82,29.71,10.0,Variable,6.9,-,0.01,Rain,Light Rain,0,2012-12-29 15:51:00
11:32 AM,35.6,30.2,81,29.64,10.0,West,10.4,25.3,0.00,,Overcast,270,2012-12-29 16:32:00
11:39 AM,35.6,30.2,81,29.64,7.0,WSW,13.8,18.4,0.00,Snow,Light Snow,250,2012-12-29 16:39:00
11:51 AM,36.0,30.0,79,29.69,7.0,WSW,12.7,21.9,0.00,Snow,Light Snow,250,2012-12-29 16:51:00
12:51 PM,35.1,30.0,82,29.70,3.0,WSW,9.2,18.4,0.00,Snow,Light Snow,240,2012-12-29 17:51:00
1:48 PM,33.8,28.4,81,29.65,3.0,WNW,15.0,23.0,0.01,Snow,Light Snow,290,2012-12-29 18:48:00
1:51 PM,33.1,28.0,82,29.72,3.0,West,11.5,23.0,0.01,Snow,Light Snow,280,2012-12-29 18:51:00
2:17 PM,33.8,28.4,81,29.66,2.5,West,8.1,16.1,0.00,Snow,Light Snow,270,2012-12-29 19:17:00
2:51 PM,32.0,27.0,82,29.75,2.5,WNW,12.7,24.2,0.00,Snow,Light Snow,300,2012-12-29 19:51:00
3:03 PM,32.0,26.6,80,29.70,3.0,WNW,12.7,19.6,0.00,Snow,Light Snow,290,2012-12-29 20:03:00
3:13 PM,32.0,26.6,80,29.71,4.0,WNW,11.5,20.7,N/A,Snow,Light Snow,290,2012-12-29 20:13:00
3:51 PM,30.9,27.0,85,29.79,3.0,West,13.8,21.9,0.00,Snow,Light Snow,260,2012-12-29 20:51:00
4:41 PM,30.2,26.6,86,29.74,1.8,West,11.5,19.6,0.00,Snow,Light Snow,280,2012-12-29 21:41:00
4:51 PM,30.9,26.1,82,29.81,1.5,West,10.4,16.1,0.01,Snow,Light Snow,280,2012-12-29 21:51:00
5:07 PM,30.2,26.6,86,29.75,3.0,West,11.5,-,0.00,Snow,Light Snow,270,2012-12-29 22:07:00
5:51 PM,30.0,25.0,82,29.85,4.0,WNW,15.0,24.2,0.01,Snow,Light Snow,290,2012-12-29 22:51:00
6:51 PM,28.9,25.0,85,29.88,4.0,WNW,9.2,18.4,0.00,Snow,Light Snow,290,2012-12-29 23:51:00
7:51 PM,30.0,25.0,82,29.89,4.0,WNW,12.7,27.6,0.00,Snow,Light Snow,300,2012-12-30 00:51:00
8:42 PM,28.4,24.8,86,29.85,2.5,WNW,10.4,20.7,0.01,Snow,Light Snow,290,2012-12-30 01:42:00
8:51 PM,28.9,24.1,82,29.92,3.0,WNW,19.6,28.8,0.01,Snow,Light Snow,300,2012-12-30 01:51:00
9:51 PM,28.0,23.0,81,29.94,4.0,West,13.8,23.0,0.00,Snow,Light Snow,280,2012-12-30 02:51:00
10:40 PM,28.4,23.0,80,29.89,2.0,West,11.5,-,0.01,Snow,Light Snow,280,2012-12-30 03:40:00
10:51 PM,28.0,23.0,81,29.96,2.0,West,10.4,18.4,0.01,Snow,Light Snow,260,2012-12-30 03:51:00
11:32 PM,26.6,21.2,80,29.92,1.8,WNW,18.4,28.8,0.00,Snow,Light Snow,290,2012-12-30 04:32:00
11:51 PM,27.0,21.9,81,29.99,1.5,West,10.4,20.7,0.01,Snow,Light Snow,280,2012-12-30 04:51:00